SCP
0 0 0 0 0 0 0 0 0 0 0 0 0 1 1 1 1 1 1 1 1 1 1 1 1 1 1 1 1 1 2 2 2 2 2 2 2 2 2 2 1 1 1 1
0 0 0 0 0 0 0 0 0 0 0 0 0 1 1 1 1 1 1 1 1 1 1 1 1 1 1 1 1 1 1 1 2 2 2 2 2 2 2 1 1 1 1 1
0 0 0 0 0 0 0 0 0 0 0 0 0 0 1 1 1 0 0 0 0 0 0 0 0 0 1 1 1 1 1 1 1 1 1 2 2 1 1 1 1 1 1 0
0 0 0 0 0 0 0 0 0 0 0 0 0 0 1 1 0 0 0 0 0 0 0 0 0 0 0 0 1 1 1 1 1 1 1 1 1 1 1 1 1 1 1 0
0 0 0 0 0 0 0 0 0 0 0 0 0 0 0 0 0 0 0 0 0 0 0 0 0 0 0 0 1 1 1 2 2 1 1 1 1 1 1 1 1 1 1 0
0 0 0 0 0 0 0 0 0 0 0 0 0 0 0 0 0 0 0 0 0 0 0 0 0 0 0 0 1 1 1 2 2 1 1 1 1 1 1 1 1 1 1 1
0 0 0 0 0 0 0 0 0 0 0 0 0 0 0 0 0 0 0 0 0 0 0 0 0 0 0 1 1 1 1 1 1 1 1 1 1 1 1 1 1 0 0 0
0 0 0 0 0 0 0 0 0 0 0 0 0 0 0 0 0 0 0 0 0 0 0 0 0 0 0 0 0 1 1 1 1 1 1 1 1 0 0 0 0 0 0 0
0 0 0 0 0 0 0 0 0 0 0 0 0 0 0 0 0 0 0 0 0 0 0 0 0 0 0 0 0 0 0 0 0 0 0 0 0 0 0 0 0 0 0 0
0 0 0 0 0 0 0 0 0 0 0 0 0 0 0 0 0 0 0 0 0 0 0 0 0 0 0 0 0 0 0 0 0 0 0 0 0 0 0 0 0 0 0 0
0 0 0 0 0 0 0 0 0 0 0 0 0 0 0 0 0 0 0 0 0 0 0 0 0 0 0 0 0 0 0 0 0 0 0 0 0 0 0 0 0 0 0 0
0 0 0 0 0 0 0 0 0 0 0 0 0 0 0 0 0 0 0 0 0 0 0 0 0 0 0 0 0 0 0 0 0 0 0 0 0 0 0 0 0 0 0 0
0 0 0 0 0 0 0 0 0 0 0 0 0 0 0 0 0 0 0 0 0 0 0 0 0 0 0 0 0 0 0 0 0 0 0 0 0 0 0 0 0 0 0 0
0 0 0 0 0 0 0 0 0 0 0 0 0 0 0 0 0 0 0 0 0 0 0 0 0 0 0 0 0 0 0 0 0 0 0 0 0 0 0 0 0 0 0 0
0 0 0 0 0 0 0 0 0 0 0 0 0 0 0 0 0 0 0 0 0 0 0 0 0 0 0 0 0 0 0 0 0 0 0 0 0 0 0 0 0 0 0 0
0 0 0 0 0 0 0 0 0 0 0 0 0 0 0 0 0 0 0 0 0 0 0 0 0 0 0 0 0 0 0 0 0 0 0 0 0 0 0 0 0 0 0 0
0 0 0 0 0 0 0 0 0 0 0 0 0 0 0 0 0 0 0 0 0 0 0 0 0 0 0 0 0 0 0 0 0 0 0 0 0 0 0 0 0 0 0 0
0 0 0 0 0 0 0 0 0 0 0 0 0 0 0 0 0 0 0 0 0 0 0 0 0 0 0 0 0 0 0 0 0 0 0 0 0 0 0 0 0 0 0 0
0 0 0 0 0 0 0 0 0 0 0 0 0 0 0 0 0 0 0 0 0 0 0 0 0 0 0 0 0 0 0 0 0 0 0 0 0 0 0 0 0 0 0 0
0 0 0 0 0 0 0 0 0 0 0 0 0 0 0 0 0 0 0 0 0 0 0 0 0 0 0 0 0 0 0 0 0 0 0 0 0 0 0 0 0 0 0 0
0 0 0 0 0 0 0 0 0 0 0 0 0 0 0 0 0 0 0 0 0 0 0 0 0 0 0 0 0 0 0 0 0 0 0 0 0 0 0 0 0 0 0 0
0 0 0 0 0 0 0 0 0 0 0 0 0 0 0 0 0 0 0 0 0 0 0 0 0 0 0 0 0 0 0 0 0 0 0 0 0 0 0 0 0 0 0 0
0 0 0 0 0 0 0 0 0 0 0 0 0 0 0 0 0 0 0 0 0 0 0 0 0 0 0 0 0 0 0 0 0 0 0 0 0 0 0 0 0 0 0 0
0 0 0 0 0 0 0 0 0 0 0 0 0 0 0 0 0 0 0 0 0 0 0 0 0 0 0 0 0 0 0 0 0 0 0 0 0 0 0 0 0 0 0 0
0 0 0 0 0 0 0 0 0 0 0 0 0 0 0 0 0 0 0 0 0 0 0 0 0 0 0 0 0 0 0 0 0 0 0 0 0 0 0 0 0 0 0 0
0 0 0 0 0 0 0 0 0 0 0 0 0 0 0 0 0 0 0 0 0 0 0 0 0 0 0 0 0 0 0 0 0 0 0 0 0 0 0 0 0 0 0 0
Wind_Speed
9 8 7 9 10 10 8 5 4 2 1 4 5 9 9 8 7 8 9 8 8 8 7 6 5 5 5 4 3 3 3 2 2 2 2 2 2 3 2 1 1 2 2 3
4 7 11 11 12 13 11 7 1 3 5 5 1 6 7 7 7 7 8 8 8 7 7 6 4 4 4 4 3 2 2 2 2 2 2 2 2 3 3 1 0 0 1 2
2 8 11 13 11 10 10 10 6 3 3 6 5 3 5 6 5 6 7 7 7 6 6 5 4 4 3 3 1 2 2 1 2 3 3 3 3 3 3 2 1 0 1 2
2 5 9 10 7 5 7 9 8 6 4 5 3 1 2 3 1 4 6 7 6 5 5 4 3 2 2 1 2 2 2 1 1 2 3 5 5 5 5 3 3 2 2 3
8 6 10 9 5 3 6 6 6 11 9 7 8 4 1 3 3 4 5 6 4 4 3 2 1 0 1 2 2 1 2 1 1 2 4 5 5 5 5 5 6 5 4 5
17 12 8 7 7 6 7 4 5 10 9 7 3 2 4 6 8 7 5 5 3 2 1 1 1 1 2 3 3 2 1 1 1 3 4 5 6 6 7 8 7 6 5 4
12 10 9 6 6 6 7 5 3 5 3 7 8 3 3 7 7 6 5 3 2 1 1 1 1 2 3 3 3 3 2 2 3 4 5 5 7 7 8 9 7 6 5 4
4 4 5 6 7 6 7 5 3 5 4 4 5 3 3 8 7 5 3 2 1 2 2 2 2 2 3 4 4 4 4 4 4 4 5 5 7 6 6 7 6 6 5 6
5 5 2 2 4 6 8 9 10 8 6 2 6 7 6 6 5 3 3 4 5 6 6 6 7 7 6 6 5 5 5 5 5 5 7 7 7 6 6 7 7 7 6 7
8 9 6 3 2 4 8 9 7 8 8 6 6 7 5 4 6 6 7 7 8 8 9 10 9 9 8 7 6 6 5 5 5 7 7 9 6 6 7 7 8 7 7 8
9 7 7 5 6 8 8 9 8 7 8 8 6 7 7 5 4 6 8 9 9 9 10 10 9 9 9 9 8 7 7 7 6 6 6 7 6 6 7 7 7 7 7 7
8 6 7 11 12 8 5 7 7 6 7 7 5 6 4 4 7 10 10 10 10 10 10 10 10 9 9 9 9 9 8 8 7 7 7 7 7 7 8 9 8 8 8 8
9 6 4 4 6 8 3 6 7 8 7 7 7 5 2 8 11 12 11 11 10 10 11 10 10 9 9 9 9 9 10 9 9 9 8 8 8 8 8 8 8 8 8 8
5 6 8 6 5 5 5 4 5 6 6 8 9 11 10 12 12 11 10 10 10 10 9 10 9 8 8 8 8 9 10 10 10 9 10 9 9 9 9 9 9 9 9 9
4 8 10 10 9 8 8 6 5 6 6 8 10 10 11 12 12 11 11 11 11 10 11 11 10 9 9 9 8 8 9 9 9 10 11 10 9 9 9 9 9 9 9 12
1 6 11 12 9 10 10 6 4 4 6 7 10 9 12 12 11 11 11 10 9 10 12 12 12 11 10 10 9 9 10 9 9 10 11 11 10 10 10 10 10 9 9 9
6 6 10 11 10 11 8 3 2 5 8 9 9 9 11 12 11 11 9 8 10 11 12 12 12 11 9 9 8 9 10 10 10 10 11 11 11 12 11 13 12 11 10 10
5 7 7 11 12 10 3 1 3 3 6 7 7 10 11 11 11 8 10 9 9 11 11 11 11 12 11 10 10 10 12 11 11 11 11 11 12 13 12 12 12 11 10 10
5 4 7 8 10 8 1 2 2 4 6 7 8 10 11 12 12 5 9 9 9 10 10 10 11 12 11 11 11 11 12 12 12 12 12 13 13 14 13 13 12 11 10 10
5 5 7 9 12 13 4 8 4 3 1 8 9 10 10 11 9 8 11 10 10 10 9 10 11 11 10 11 11 12 12 12 12 13 13 13 13 13 14 13 12 10 9 10
7 8 9 10 12 7 8 5 3 6 5 7 9 9 9 7 7 9 10 10 9 10 10 10 10 9 9 10 9 11 12 12 13 13 13 13 13 13 13 11 9 9 9 9
7 7 8 7 8 3 4 4 6 5 4 6 7 7 7 7 8 9 9 9 10 10 11 11 9 9 8 9 9 11 12 12 13 13 14 14 13 13 12 10 10 9 9 9
5 4 4 5 5 2 2 2 2 2 2 4 6 6 6 8 8 9 9 9 9 10 10 10 10 10 9 9 9 11 11 12 13 13 14 13 14 12 11 10 9 8 7 6
6 4 4 5 7 6 5 3 2 1 1 3 4 5 6 7 8 9 8 8 9 10 10 10 11 11 10 10 10 10 11 12 13 13 13 12 12 11 9 7 6 6 6 6
10 9 9 9 7 8 6 4 2 0 1 2 3 4 5 6 7 8 7 8 8 9 9 9 9 10 11 10 10 10 11 12 13 13 12 12 11 9 8 7 5 5 4 3
10 8 6 6 5 5 5 2 2 2 3 3 3 4 5 6 7 7 7 7 8 9 9 9 10 11 11 10 10 10 11 11 12 12 11 9 9 8 7 7 5 3 2 1
Wind_Direction
246 245 276 295 295 282 273 265 236 184 178 266 162 134 132 123 115 112 111 107 102 100 101 96 96 94 93 87 79 65 51 44 2 2 342 336 339 321 298 278 34 333 331 332
299 293 296 294 287 289 297 305 358 2 323 312 180 131 118 108 100 102 112 117 117 116 114 109 110 107 98 95 95 102 76 40 7 19 319 281 298 294 292 312 223 271 323 317
194 251 261 272 280 311 331 336 331 285 283 283 270 147 105 93 98 118 120 118 116 120 116 117 115 110 108 99 83 67 61 15 359 339 312 320 312 292 300 311 282 235 300 282
304 281 282 287 305 336 322 308 317 311 287 271 255 231 108 97 154 152 139 127 123 122 124 124 122 116 128 167 182 159 176 207 283 304 321 327 310 306 310 308 307 309 268 251
318 297 283 287 312 317 279 276 356 3 350 340 27 23 252 161 206 184 146 123 118 122 120 113 93 206 280 286 274 212 175 187 280 312 305 303 304 311 313 318 308 302 283 257
314 305 300 319 317 299 287 298 25 26 17 349 320 284 213 188 190 175 146 127 124 112 112 134 250 250 266 283 294 319 63 72 334 319 317 312 307 307 304 299 291 285 269 257
305 306 307 314 325 338 320 326 351 7 21 260 247 240 199 159 148 137 122 118 124 137 179 259 269 278 285 302 327 348 7 355 342 325 318 315 312 307 291 280 279 283 292 288
285 292 312 351 349 329 308 308 296 296 251 235 202 190 134 115 113 108 101 72 29 18 5 320 306 317 332 333 347 353 357 346 336 322 312 303 295 288 287 299 313 307 298 291
312 321 302 33 344 340 337 344 337 319 302 162 141 132 130 142 123 85 43 22 16 13 358 352 359 356 353 351 352 345 339 334 325 314 303 286 274 280 295 303 295 287 281 285
327 328 338 359 346 15 343 341 351 338 343 350 99 109 112 77 26 12 14 15 10 0 354 357 356 350 352 347 346 343 339 333 326 316 306 306 313 311 297 290 285 286 288 283
344 326 324 336 11 359 352 4 2 347 354 338 11 80 93 52 13 14 14 10 7 359 354 349 346 350 349 343 339 343 342 335 323 314 306 302 298 295 293 291 289 288 286 287
350 330 351 5 360 338 356 10 355 345 342 331 347 98 54 36 36 34 16 8 5 359 352 350 348 350 344 340 340 338 334 325 319 317 315 311 307 304 300 298 296 297 295 290
345 327 337 1 318 288 328 18 355 344 332 343 348 73 11 33 34 24 11 2 354 356 356 350 350 347 342 343 338 331 324 322 321 319 316 312 309 306 301 298 295 291 289 285
292 304 320 332 345 331 338 351 356 347 349 342 354 352 8 30 13 6 359 354 351 354 354 350 347 343 343 335 330 326 323 323 318 318 314 308 304 302 300 299 297 296 292 287
299 317 325 323 330 326 324 327 341 344 338 327 339 339 22 21 6 0 354 351 345 347 348 346 341 338 335 331 328 325 323 320 316 312 308 307 305 306 304 300 298 294 291 289
291 308 309 311 313 301 297 293 291 310 315 322 327 344 23 7 358 349 344 340 343 349 345 340 338 336 332 330 328 328 322 319 316 314 312 312 311 307 302 299 295 292 290 287
305 305 307 306 304 297 314 325 341 337 338 335 330 359 11 352 347 342 345 4 360 346 341 340 338 331 330 330 331 325 322 319 318 315 314 314 312 308 306 305 302 298 295 290
270 304 301 296 301 300 309 51 34 358 334 326 341 11 1 350 346 10 49 23 352 345 343 339 332 329 329 332 329 328 324 322 321 320 318 316 313 310 308 303 299 298 294 288
200 258 288 296 299 305 154 161 76 360 333 10 11 1 350 349 327 74 44 11 358 352 342 333 329 328 329 332 333 332 323 322 321 321 320 317 314 310 306 303 301 299 294 288
186 205 256 284 298 304 333 107 75 320 68 33 8 359 348 341 330 346 2 358 358 347 337 332 330 330 333 336 334 327 322 323 323 322 319 315 311 307 303 300 298 296 292 287
217 227 245 268 280 306 89 98 294 316 44 10 359 351 342 353 328 326 339 352 350 341 335 334 334 334 334 333 332 326 324 325 325 321 314 311 309 304 298 299 300 298 295 291
286 281 280 279 285 358 74 328 2 34 20 354 345 343 344 334 327 334 343 347 344 339 337 337 334 333 333 338 336 328 326 327 323 319 314 311 309 306 307 308 305 303 300 297
271 300 324 336 329 177 266 331 25 44 345 339 339 338 336 328 330 337 342 344 341 340 337 334 333 330 335 340 338 329 328 327 322 319 315 312 310 308 306 306 308 309 308 305
330 41 315 295 296 303 295 283 245 226 311 328 329 327 326 326 330 337 341 341 341 338 334 335 333 332 334 337 337 334 329 326 323 319 316 314 313 310 311 311 311 311 318 322
308 289 277 275 279 276 270 267 249 210 229 294 311 315 322 326 329 336 337 341 339 332 334 334 333 331 333 335 335 338 333 328 324 320 318 318 314 312 316 318 322 324 347 339
287 299 301 306 334 309 304 267 198 219 249 258 280 301 317 326 329 334 337 339 335 333 334 334 333 331 332 334 337 338 335 330 324 320 320 318 315 316 319 320 323 344 329 326